Starlink 31385

operational
NORAD ID: 58985 Int'l Des: 2024-031 Owner: SPXS Country: US Constellation: starlink
LEOCIRCULAR

Starlink 31385について

説明を読み込み中...

リアルタイム位置

3D地球を読み込み中...

次回通過

高度履歴

Altitude vs Time

uPlot chart will show altitude changes over time

軌道要素

1 58985U 24031W 25350.15645175 .00000980 00000-0 45219-4 0 9996
2 58985 53.1617 322.5449 0001880 103.2622 256.8589 15.30192812103753
Epoch: Dec 16, 2025 • Age: 21 hours

現在のステータス

高度 474.9 km
速度 7.63 km/s
衛星直下点 7.50°N, 33.79°E
打ち上げ日 Feb 15, 2024
運用期間 1.8 years
タイプ internet

技術仕様

分類 Payload
質量 730.00 kg
乾燥質量 700.00 kg
総質量 730.00 kg
長さ 0.30 m
直径 4.10 m
スパン 29.00 m
形状 Box + pan
製造者 SPXS
バスタイプ Starlink V2M
フェーズステータス In Orbit
所有者/国 SPXS/US

大規模コンステレーション

Loading constellations...